{"data":{"norad_id":66780,"intl_designator":"2025-276DV","name":"FOSSASAT-2E24","alt_names":[],"object_type":"PAYLOAD","status":"ACTIVE","operator":null,"country":"SPN","launch_date":"2025-11-28","launch_site_code":"AFWTR","launch_vehicle":null,"mission":null,"orbit_class":"UNKNOWN","rcs_meters":null,"size_class":null,"mass_kg":null,"dimensions":null,"purposes":[],"wikipedia_slug":null,"has_3d_model":false,"image_url":null,"decayed_at":null,"tle_current":{"epoch":"2026-05-25T03:38:40.712640Z","epoch_age_seconds":57993,"freshness":"FRESH","line1":"1 66780U 25276DV  26145.15186010  .00003334  00000+0  16391-3 0  9994","line2":"2 66780  97.4180 218.8854 0004185 190.8776 169.2369 15.18706281 26913","mean_motion":15.18706281,"eccentricity":0.0004185,"inclination_deg":97.418,"raan_deg":218.8854,"arg_perigee_deg":190.8776,"mean_anomaly_deg":169.2369,"bstar":0.00016391,"rev_number":2691,"period_min":94.817544249032,"perigee_km":506.86691665498,"apogee_km":512.63207765309,"semimajor_km":6887.886497154,"source":"CELESTRAK","updated_at":"2026-05-25T13:38:06.479869Z"}}}